Location: Killarney Provincial Park Observatory
(46.0124°N, 81.4000°W)
Time: 09:58:02
(UTC-04:00)

Iridium 22 - Visible Passes

Search period start: 23 April 2014 00:00
Search period end: 03 May 2014 00:00
Orbit: 776 x 779 km, 86.4° (Epoch: 22 April)

Date Brightness Start Highest point End Pass type
(mag) Time Alt. Az. Time Alt. Az. Time Alt. Az.
23 Apr 5.8 00:09:07 10° N 00:13:34 66° N 00:13:34 66° N visible
23 Apr 7.9 01:52:16 10° NW 01:54:03 12° WNW 01:54:03 12° WNW visible
23 Apr 6.0 23:35:41 10° N 23:40:17 49° ENE 23:40:17 49° ENE visible
24 Apr 7.4 01:17:14 10° NNW 01:20:46 21° WNW 01:20:46 21° WNW visible
24 Apr 6.6 23:02:31 10° NNE 23:07:01 30° ENE 23:07:01 30° ENE visible
25 Apr 6.6 00:43:05 10° NNW 00:47:29 36° WNW 00:47:29 36° WNW visible
25 Apr 7.2 22:29:46 10° NNE 22:33:13 18° ENE 22:33:44 17° E visible
26 Apr 5.7 00:09:16 10° N 00:14:13 64° WNW 00:14:13 64° WNW visible
26 Apr 5.4 23:35:42 10° N 23:40:56 73° E 23:40:57 72° E visible
27 Apr 7.7 01:18:03 10° NW 01:20:59 15° WNW 01:21:26 15° W visible
27 Apr 6.0 23:02:22 10° N 23:07:18 41° E 23:07:42 40° E visible
28 Apr 7.0 00:43:31 10° NNW 00:47:48 26° W 00:48:11 26° W visible
28 Apr 6.8 22:29:20 10° NNE 22:33:32 24° ENE 22:34:27 23° E visible
29 Apr 6.2 00:09:31 10° NNW 00:14:29 46° W 00:14:56 45° WSW visible
29 Apr 7.4 21:56:55 10° NE 21:59:37 14° ENE 22:01:12 13° E visible
29 Apr 5.4 23:35:48 10° N 23:41:02 81° W 23:41:41 68° SSW visible
30 Apr 8.0 01:19:43 10° WNW 01:20:50 11° WNW 01:21:56 10° W visible
30 Apr 5.6 23:02:19 10° N 23:07:29 58° E 23:08:27 49° SE visible
01 May 7.5 00:44:07 10° NW 00:47:43 19° WNW 00:48:56 18° W visible
01 May 6.4 22:29:05 10° NNE 22:33:47 33° ENE 22:35:14 28° ESE visible
02 May 6.8 00:09:51 10° NNW 00:14:28 33° W 00:15:43 29° WSW visible
02 May 7.1 21:56:13 10° NNE 21:59:58 20° ENE 22:02:01 16° ESE visible
02 May 5.9 23:35:59 10° N 23:41:06 58° W 23:42:30 43° SW visible
